AirNav   Duncan Aviation - Near you to keep you flying
 
 894 users online  

F95 Calhoun County Airport
Blountstown, Florida, USA

GOING TO BLOUNTSTOWN?


FAA INFORMATION EFFECTIVE 11 AUGUST 2022

Location

FAA Identifier: F95
Lat/Long: 30-29-13.3140N 085-06-49.6290W
30-29.221900N 085-06.827150W
30.4870317,-85.1137858
(estimated)
Elevation: 121.2 ft. / 37 m (estimated)
Variation: 02W (1995)
From city: 5 miles NW of BLOUNTSTOWN, FL
Time zone: UTC -5 (UTC -6 during Standard Time)
Zip code: 32421

Airport Operations

Airport use: Open to the public
Activation date: 12/1996
Control tower: no
ARTCC: JACKSONVILLE CENTER
FSS: GAINESVILLE FLIGHT SERVICE STATION
NOTAMs facility: GNV (NOTAM-D service available)
Attendance: MON-FRI 0700-1500
Wind indicator: lighted
Segmented circle: yes
Lights: ACTVT MIRL RWY 18/36 - CTAF.
Beacon: white-green (lighted land airport)
Operates sunset to sunrise.

Airport Communications

CTAF: 122.9
WX AWOS-AV: 119.350 (850-674-1347)

Nearby radio navigation aids

VOR radial/distance  VOR name  Freq  Var
MAIr178/18.0MARIANNA VORTAC114.0000E
SZWr262/38.5SEMINOLE VORTAC117.5002E

 
NDB name  Hdg/Dist  Freq  Var  ID
SOYYA168/23.832902WSMY ... -- -.--

Airport Services

Fuel available: 100LL JET-A
Parking: hangars and tiedowns
Airframe service: MAJOR
Powerplant service: MAJOR
Bottled oxygen: NONE
Bulk oxygen: NONE

Runway Information

Runway 18/36

Dimensions: 3729 x 75 ft. / 1137 x 23 m
Surface: asphalt, in good condition
Weight bearing capacity: 
PCN 13 /F/A/Y/T
Runway edge lights: medium intensity
RUNWAY 18  RUNWAY 36
Latitude: 30-29.529452N30-28.914353N
Longitude: 085-06.827632W085-06.826655W
Elevation: 121.0 ft.118.0 ft.
Traffic pattern: leftleft
Runway heading: 182 magnetic, 180 true002 magnetic, 360 true
Displaced threshold: no129 ft.
Markings: nonprecision, in fair conditionnonprecision, in fair condition
Touchdown point: yes, no lightsyes, no lights
Obstructions: 68 ft. trees, 1547 ft. from runway, 40 ft. left of centerline, 20:1 slope to clear
APPROACH SLOPE 20:1 TO THE DSPLCD THLD DUE TO 88 FT TREE 185 FT L OF CNTRLN AND 1600 FT FRM RY END.
15 ft. road, 425 ft. from runway, 125 ft. right of centerline, 15:1 slope to clear

Airport Ownership and Management from official FAA records

Ownership: Publicly-owned
Owner: CALHOUN COUNTY
20589 CENTRAL AVENUE EAST
BLOUNTSTOWN, FL 32424
Phone 850-674-4545
Manager: ROB SIMS
16701 AGRIPARK ROAD
ALTHA, FL 32421
Phone 850-674-2499
AIRPORT PHYSICAL ADDRESS: 16701 NORTHWEST AGRIPARK ROAD, ALTHA, FL 3241 850-674-2499 FAX: 850-674-1578.

Airport Operational Statistics

Aircraft based on the field: 24
Single engine airplanes: 23
Helicopters: 1
    
Aircraft operations: avg 38/week *
50% transient general aviation
50% local general aviation
* for 12-month period ending 05 March 2018

Additional Remarks

FOR CD CTC TYNDALL APCH AT 850-283-2900 OR 850-283-3353, WHEN APCH CLSD CTC JACKSONVILLE ARTCC AT 904-845-1592.

Instrument Procedures

There are no published instrument procedures at F95.

Some nearby airports with instrument procedures:

KMAI - Marianna Municipal Airport (21 nm N)
2J9 - Quincy Municipal Airport (30 nm E)
KBCR - Tri-County Airport (33 nm NW)
17J - Donalsonville Municipal Airport (33 nm N)
KPAM - Tyndall Air Force Base (35 nm SW)
 
Loc | Ops | Rwys | IFR | FBO | Links
Com | Nav | Svcs | Stats | Notes
Area around F95 (Calhoun County Airport)
 
Road maps at: MapQuest Bing Google
 
Aerial photo
WARNING: Photo may not be current or correct
Aerial photo of F95 (Calhoun County Airport)
Photo by Brian Christopher
Photo taken 08-Aug-2010

Do you have a better or more recent aerial photo of Calhoun County Airport that you would like to share? If so, please send us your photo.

 
Sectional chart

 
Airport distance calculator
Flying to Calhoun County Airport? Find the distance to fly.

From to F95

Sunrise and sunset
Times for 13-Aug-2022
 Local
(UTC-5)
 Zulu
(UTC)
Morning civil twilight05:4110:41
Sunrise06:0711:07
Sunset19:2400:24
Evening civil twilight19:4900:49

Current date and time
Zulu (UTC)  14-Aug-2022 02:39:11
Local (UTC-5)  13-Aug-2022 21:39:11
 
METAR
KMAI 
21nm N 
140153Z AUTO 17005KT 10SM FEW022 OVC100 23/23 A3001 RMK AO1 LTG DSNT S AND W RAE10B31E52 SLP162 T02330228 PNO $
K2J9 
30nm E 
140215Z AUTO 22004KT 6SM -DZ FEW006 BKN030 OVC046 24/24 A3004 RMK AO2
KBCR 
33nm NW 
140223Z AUTO 00000KT 1/2SM +TSRA FG VV011 22/22 A3005 RMK AO2 TSB04 P0172 T02220217 $
K17J 
33nm N 
140215Z AUTO 21003KT 10SM SCT033 24/22 A3003 RMK AO2 LTG DSNT SW T02430222
KPAM 
34nm SW 
140156Z AUTO 28005KT 10SM FEW023 28/23 A3000 RMK AO2 SLP162 T02750231 $
KECP 
36nm W 
140153Z 00000KT 10SM SCT100 26/24 A3000 RMK AO1 LTG DSNT E SLP169 T02610239
KBGE 
38nm NE 
140215Z AUTO 20007KT 10SM SCT036 SCT046 SCT050 25/23 A3003 RMK AO2 LTG DSNT SW T02510232
KTLH 
40nm E 
140153Z 30005KT 10SM SCT030 BKN070 OVC095 24/23 A3002 RMK AO2 SLP166 T02390233
TAF
KECP 
36nm W 
132323Z 1400/1424 24007KT P6SM VCSH SCT025 SCT150 FM140200 VRB03KT P6SM SCT150 FM142000 22005KT P6SM VCSH SCT040 SCT100
KTLH 
40nm E 
132251Z 1323/1418 30009KT P6SM VCTS SCT028CB BKN100 TEMPO 1323/1324 1SM +TSRA BKN015CB FM140000 01004KT P6SM SCT100
NOTAMs
Click for the latest NOTAMs
NOTAMs are issued by the DoD/FAA and will open in a separate window not controlled by AirNav.

 

 
 

FBO, Fuel Providers, and Aircraft Ground Support

  
 Business Name 
 
 Contact 
 
 Services / Description 
 
Fuel Prices
 
Comments
  
 Calhoun County Airport
850-674-2499
[email]
Airport management, Aviation fuel, Aircraft parking (ramp or tiedown), Hangars, Hangar leasing / sales, Passenger terminal and lounge, Aircraft maintenance, ...

More info about Calhoun County Airport
World Fuel Services
100LL Jet A
SS $5.99 $6.15 
 Updated 01-Aug-2022
 
   3 read write
SS=Self service
Update Fuel Prices
 

Would you like to see your business listed on this page?

 If your business provides an interesting product or service to pilots, flight crews, aircraft, or users of the Calhoun County Airport, you should consider listing it here.  To start the listing process, click on the button below
 
Add a business
 

Other Pages about Calhoun County Airport

flyfoxtrot95.com
 
Update a link
 
Copyright © AirNav, LLC. All rights reserved. Privacy Policy  Contact